This is the latest recevied weather packets stored in our database for station/object F4IEI-10. If no packets are shown the sender has not sent any weather packets the latest 10 day(s).
| Time | Temp. | Humidity | Pressure | Rain* | Wind** | Luminosity | Snow |
|---|---|---|---|---|---|---|---|
| 1778003020 | 11.11° C | 100% | 1008.6 hPa | - | - | - | - |
| 1778002120 | 11.11° C | 100% | 1008.5 hPa | - | - | - | - |
| 1778001220 | 11.67° C | 100% | 1008.4 hPa | - | - | - | - |
| 1778000320 | 11.67° C | 100% | 1008.3 hPa | - | - | - | - |
| 1777999420 | 12.22° C | 100% | 1008.5 hPa | - | - | - | - |
| 1777998524 | 12.22° C | 100% | 1008.4 hPa | - | - | - | - |
| 1777997622 | 12.22° C | 100% | 1008.4 hPa | - | - | - | - |
| 1777996722 | 12.22° C | 100% | 1008.5 hPa | - | - | - | - |
| 1777995822 | 12.22° C | 100% | 1008.5 hPa | - | - | - | - |
| 1777994922 | 12.22° C | 100% | 1008.5 hPa | - | - | - | - |
| 1777994022 | 12.22° C | 100% | 1008.6 hPa | - | - | - | - |
| 1777993122 | 12.22° C | 100% | 1008.7 hPa | - | - | - | - |
| 1777992222 | 12.22° C | 100% | 1008.7 hPa | - | - | - | - |
| 1777991322 | 12.78° C | 100% | 1008.8 hPa | - | - | - | - |
| 1777990422 | 12.78° C | 100% | 1008.7 hPa | - | - | - | - |
| 1777989522 | 12.78° C | 100% | 1008.7 hPa | - | - | - | - |
| 1777988622 | 12.78° C | 100% | 1008.8 hPa | - | - | - | - |
| 1777987722 | 12.22° C | 100% | 1009 hPa | - | - | - | - |
| 1777986822 | 12.22° C | 100% | 1009.1 hPa | - | - | - | - |
| 1777985922 | 12.22° C | 100% | 1009.1 hPa | - | - | - | - |
| 1777985022 | 12.22° C | 100% | 1009.2 hPa | - | - | - | - |
| 1777984122 | 12.22° C | 100% | 1009.2 hPa | - | - | - | - |
| 1777983222 | 11.67° C | 100% | 1009.3 hPa | - | - | - | - |
| 1777982322 | 11.67° C | 100% | 1009.5 hPa | - | - | - | - |
| 1777981422 | 11.67° C | 100% | 1009.6 hPa | - | - | - | - |
* Rain since midnight (hover to see other rain measurements)
** Current wind speed in m/s (hover to see current wind gust speed)